Regional Weather Roundup
Issued by NWS

Home | Current Version | Previous Version | Text Only | Print | Product List | Glossary Off
Versions: 1 2 3 4 5 6 7 8 9 10 11 12 13 14 15 16 17 18 19 20 21 22 23 24 25 26 27 28 29 30 31 32 33 34 35 36 37 38 39 40 41 42 43 44 45 46 47 48 49 50

000
ASUS44 KMEG 022110
RWRTN
TENNESSEE HOURLY STATE WEATHER ROUNDUP
NATIONAL WEATHER SERVICE MEMPHIS TN
300 PM CST FRI DEC 02 2016

TNZ002-004-019-021-049-052-054-088>092-022200-
WEST TENNESSEE

CITY           SKY/WX    TMP DP  RH WIND       PRES   REMARKS
MEMPHIS INTL   MOSUNNY   63  31  30 VRB3      30.25R
NWS MEMPHIS      N/A     62 N/A N/A MISG        N/A
JACKSON        SUNNY     59 N/A N/A NW8       30.26R
DYERSBURG      SUNNY    N/A N/A N/A NW3       30.26R
UNION CITY     SUNNY     54  30  40 CALM      30.27R
PARIS          SUNNY     52  28  40 CALM      30.27R
HUNTINGDON     SUNNY     57  32  38 NW3       30.25R
LEXINGTON      SUNNY     61  27  27 NW6       30.25R
$$

TNZ008-025-027-028-033-062-065-066-022200-
NORTH MIDDLE TENNESSEE

CITY           SKY/WX    TMP DP  RH WIND       PRES   REMARKS
NASHVILLE      MOSUNNY   58  27  30 NW7       30.24R
PORTLAND       SUNNY     52  28  40 W7        30.25R
CLARKSVILLE    SUNNY     53  29  39 N8        30.25R
SMYRNA         SUNNY     58  30  34 N6        30.24S
CROSSVILLE     SUNNY     52  27  38 NW5       30.21F
$$

TNZ061-075-076-078-094-096-097-022200-
SOUTH MIDDLE TENNESSEE

CITY           SKY/WX    TMP DP  RH WIND       PRES   REMARKS
FAYETTEVILLE   SUNNY     59  30  33 CALM      30.23R
TULLAHOMA      SUNNY     55  23  28 NW7       30.23S
WINCHESTER     SUNNY     57  27  30 N8        30.22F
MCMINNVILLE    SUNNY     55  28  35 NW7       30.22S
COLUMBIA       SUNNY     61  28  29 N5        30.22R
SHELBYVILLE    SUNNY     61  30  31 NW5       30.24R
$$

TNZ017-018-042-046-047-022200-
NORTHEAST TENNESSEE

CITY           SKY/WX    TMP DP  RH WIND       PRES   REMARKS
TRI CITIES     MOSUNNY   51  27  39 SW14      30.17S
ELIZABETHTON   DRIZZLE   50  27  40 W7G17     30.17R
$$

TNZ012-013-036-069-073-074-022200-
CENTRAL EAST TENNESSEE

CITY           SKY/WX    TMP DP  RH WIND       PRES   REMARKS
KNOXVILLE      MOSUNNY   54  28  36 SW5       30.20F
OAK RIDGE      SUNNY     57  28  33 CALM      30.21S
DOWNTOWN KNOXV SUNNY     55  30  38 SW6       30.22R
GATLINBURG     SUNNY     54  27  35 W6        30.21R
MORRISTOWN     SUNNY     52  28  40 W10       30.19R
JACKSBORO      SUNNY     55  25  30 VRB6G12   30.23S
$$

TNZ083-085-099-022200-
SOUTHEAST TENNESSEE

CITY           SKY/WX    TMP DP  RH WIND       PRES   REMARKS
CHATTANOOGA    MOSUNNY   59  28  30 CALM      30.21S
$$

SKY/WX REPORTED AS FAIR MEANS FEW OR NO CLOUDS BELOW
12 THOUSAND FEET.





USA.gov is the U.S. government's official web portal to all federal, state and local government web resources and services.